Theta_e
304 303 303 302 301 300 299 298 296 296 295 295 294 293 293 292 292 291 290 289 288 289 288 288 288 287 287 286 286 286 286 285 284 283 284 284 284 285 284 284 286 284 283 285 284 284 284 286 287 287 286 286 288 288 288 289 288 290 291 293 293 293 293 292 289 288 290 291 290 291 291 291 291 292 291 292 293 294 295 296 297 298 298 299 299
301 301 301 300 299 297 295 294 293 293 293 292 291 290 290 289 289 289 289 286 287 288 288 286 285 286 286 286 285 285 284 284 283 283 285 285 285 283 284 284 284 284 283 285 285 284 284 285 286 286 285 286 286 286 286 286 286 287 286 288 290 290 291 291 289 288 286 289 288 290 289 290 289 291 290 289 291 292 292 293 294 295 296 296 297
300 299 298 297 295 293 292 291 291 291 290 290 289 289 288 287 288 289 288 286 285 286 286 285 285 285 285 284 285 284 284 283 283 284 283 283 285 284 283 283 284 285 285 285 285 284 284 284 285 285 284 284 285 285 284 284 284 284 285 286 287 287 287 288 289 287 286 286 288 288 288 288 288 289 289 290 290 291 290 291 292 293 294 295 295
297 296 294 292 291 290 290 290 290 290 289 289 288 287 287 287 286 287 286 286 286 285 284 284 285 285 285 285 285 284 285 284 284 283 285 284 285 285 284 284 284 284 284 285 284 284 284 284 284 284 284 284 284 284 284 283 283 283 284 284 284 285 285 285 288 288 287 286 287 287 288 287 288 289 290 290 289 289 290 290 291 291 292 293 293
293 292 291 290 289 289 288 289 289 288 288 287 287 286 286 286 285 286 285 285 284 284 283 282 284 285 286 285 284 284 284 284 285 285 284 283 284 284 285 284 284 283 283 283 284 284 283 283 284 283 283 283 283 283 283 283 283 283 283 284 284 284 284 284 285 286 286 285 286 287 288 287 288 288 288 288 288 289 289 288 289 290 290 291 292
291 290 290 289 288 288 287 287 287 287 287 287 286 286 286 285 284 284 284 284 283 283 284 283 284 284 283 283 283 283 283 283 283 284 284 284 283 283 283 283 283 283 282 283 283 282 282 282 283 283 282 282 282 283 283 283 283 283 283 283 283 283 283 283 284 284 284 285 285 285 286 286 286 287 288 286 286 286 287 288 288 289 288 288 289
289 289 288 288 287 287 286 286 286 286 286 286 285 285 284 284 284 284 283 284 284 284 283 283 282 283 283 283 283 283 284 283 283 283 283 282 282 282 281 281 282 281 281 282 282 281 281 282 282 282 282 282 282 282 282 282 283 282 283 283 283 283 283 283 283 283 283 283 284 284 285 285 286 285 286 287 287 286 285 285 285 287 287 287 287
288 287 287 286 286 286 285 285 285 285 285 284 284 284 284 284 283 283 283 284 283 283 283 283 281 282 282 282 282 282 282 282 282 282 282 282 282 281 281 281 281 281 280 281 280 280 281 281 282 282 282 282 282 282 282 282 282 282 282 282 282 282 282 282 282 282 282 282 282 282 283 283 284 285 286 285 284 284 285 284 283 284 285 287 287
286 286 286 285 285 285 284 284 284 284 284 284 283 283 283 283 283 283 283 283 283 282 281 282 282 282 282 281 281 282 282 283 282 282 282 282 282 281 281 280 280 280 280 280 280 281 280 280 281 281 282 283 285 285 285 285 284 282 282 282 282 282 282 282 282 281 281 281 281 282 282 282 282 283 283 283 283 283 285 285 284 285 286 286 287
286 285 285 285 284 284 284 283 283 283 283 283 283 283 283 282 283 282 282 282 282 281 281 281 281 281 281 280 280 282 282 282 284 288 289 284 282 282 282 281 280 280 280 280 280 280 280 280 281 282 283 283 284 285 286 286 286 285 283 282 282 281 281 281 281 281 281 281 281 281 281 281 282 283 283 284 285 286 285 285 284 285 286 285 286
285 285 284 284 283 283 283 283 283 283 283 282 282 282 282 282 282 282 281 281 281 281 281 280 280 280 280 280 280 281 282 283 287 289 289 289 284 281 281 281 280 280 279 279 279 279 279 279 279 280 281 281 281 284 285 285 285 285 286 286 286 283 282 282 282 282 282 281 282 282 281 281 282 284 284 284 285 285 285 285 284 284 284 283 281
284 284 284 283 283 283 283 283 282 282 282 282 282 281 281 281 281 281 281 280 280 280 280 279 280 279 280 279 280 280 280 285 287 288 288 288 288 284 281 281 281 280 279 279 279 279 279 279 279 280 280 280 280 280 281 283 284 285 285 286 286 286 286 283 282 281 281 280 280 281 281 281 282 282 282 283 283 283 284 284 284 283 283 283 283
284 283 283 283 283 282 282 282 282 282 281 281 281 281 281 280 280 280 280 279 279 279 279 279 279 279 279 279 279 279 279 285 287 287 287 287 288 286 281 280 279 279 279 278 278 278 278 279 279 280 280 281 280 280 280 280 283 284 284 284 283 284 284 285 285 283 282 280 280 280 281 281 281 282 284 283 284 283 283 283 284 284 283 283 284
284 283 283 283 282 282 282 282 282 281 281 280 280 280 280 280 279 279 279 278 278 278 278 278 278 278 279 278 278 278 278 284 286 286 286 287 287 285 279 279 279 278 278 278 278 278 278 278 278 278 278 278 279 279 280 280 280 281 281 281 281 282 283 284 284 284 284 282 281 280 282 283 282 283 284 285 283 282 282 281 282 282 282 282 283
283 283 283 282 282 282 282 281 281 280 280 280 279 279 279 279 279 278 278 278 278 278 277 277 277 276 277 276 278 278 279 284 284 285 285 286 286 283 278 279 278 277 278 277 277 278 278 278 278 278 278 278 279 280 280 280 281 281 281 281 281 282 282 282 282 282 282 283 283 283 283 284 283 284 284 284 284 283 283 282 282 282 283 284 284
283 283 282 282 282 282 281 281 280 280 279 279 279 278 278 278 278 278 277 277 277 277 277 277 277 276 277 278 278 277 278 283 283 284 284 285 285 278 277 277 277 277 277 277 277 277 278 278 278 277 277 277 279 282 282 282 281 281 280 281 281 282 282 283 285 285 285 284 284 283 283 284 286 285 285 285 284 284 284 284 284 283 281 280 279
283 282 282 282 281 281 281 280 280 279 278 278 278 277 277 277 277 276 277 277 277 277 276 276 277 278 279 279 278 278 278 280 282 283 283 284 283 276 276 275 276 276 276 276 277 277 277 278 277 277 277 277 280 283 283 283 281 280 280 280 281 281 281 282 284 285 285 285 286 286 286 287 287 287 287 287 286 285 284 282 281 282 280 278 279
283 282 281 281 281 281 280 280 279 278 278 277 277 277 277 277 277 276 277 276 277 276 276 277 278 278 278 278 278 277 278 279 281 282 282 283 282 277 276 275 275 275 275 276 277 277 277 278 278 277 277 277 281 283 284 282 280 280 280 280 279 279 280 282 282 283 285 285 285 285 285 285 285 286 286 287 287 286 283 280 281 282 280 280 278
282 281 281 280 280 280 279 279 278 277 277 277 277 277 276 276 276 276 276 275 276 276 277 277 277 278 278 278 278 277 277 277 280 281 282 282 281 276 275 274 274 275 276 277 276 277 277 278 278 278 278 279 282 283 284 282 280 280 280 279 278 278 279 280 281 281 280 280 279 280 280 282 282 281 282 285 286 285 284 283 283 282 280 280 280
281 281 280 280 279 279 278 278 277 277 277 276 276 276 276 275 275 274 274 275 275 276 276 277 276 276 277 277 277 277 276 275 276 280 280 281 282 278 274 273 274 276 277 276 275 276 276 276 277 279 281 281 282 283 283 283 281 280 280 278 277 277 280 280 280 280 279 279 278 279 279 280 281 282 282 282 283 283 284 284 284 283 282 281 281
280 280 279 279 278 277 277 276 276 275 276 276 276 275 275 275 274 274 274 275 275 275 275 275 275 275 276 276 276 276 275 274 275 279 279 280 281 280 273 276 277 277 276 276 276 276 276 276 276 279 281 282 282 283 282 282 282 280 278 277 278 280 281 279 279 280 279 279 279 279 279 280 281 281 282 282 282 283 283 284 284 284 284 282 281
279 278 278 277 276 275 275 274 275 275 275 275 274 274 274 274 273 273 274 275 274 274 274 274 274 274 275 275 275 275 275 275 273 276 278 279 280 280 278 277 278 277 276 276 276 276 276 276 276 278 281 282 282 282 282 281 281 278 277 280 282 282 279 279 279 278 279 279 278 278 278 279 279 280 281 281 282 282 283 283 284 285 285 284 283
277 277 276 275 274 274 274 274 274 274 274 274 273 273 273 273 273 274 274 274 273 273 273 273 272 272 273 274 274 274 274 274 276 274 277 278 279 280 280 279 280 278 276 275 275 275 276 276 277 279 281 281 281 281 281 281 278 277 280 281 281 281 280 278 278 278 278 277 277 277 278 279 279 279 280 280 281 282 283 284 285 285 285 285 285
276 275 274 273 272 272 272 272 272 273 273 273 273 273 273 273 273 273 273 273 272 272 272 271 271 271 271 271 272 273 273 273 274 275 276 277 278 279 279 280 280 278 277 276 276 276 276 277 278 281 281 280 280 280 279 278 277 279 280 280 280 280 278 278 277 276 276 276 276 277 277 279 279 279 280 281 282 283 283 284 284 284 284 283 282
274 273 272 272 272 271 271 272 272 272 272 273 273 273 272 272 272 273 272 272 271 270 270 270 269 269 270 269 270 271 271 271 271 273 276 277 278 279 279 279 279 279 276 276 277 277 279 280 281 280 280 279 279 278 277 277 278 279 279 280 278 277 277 275 274 274 274 275 276 277 277 278 279 280 281 282 282 283 282 282 282 282 280 278 278
273 271 271 271 271 272 271 271 271 272 272 273 272 273 272 273 272 271 270 270 269 269 269 269 268 268 268 268 269 269 269 268 268 269 273 276 277 277 278 278 278 278 278 277 278 279 280 280 279 278 277 276 274 273 273 274 277 278 278 278 276 275 274 274 274 275 275 276 276 276 277 278 279 280 281 282 282 282 282 282 282 282 281 280 278
272 271 271 271 271 272 271 271 271 271 271 272 272 272 272 271 271 270 269 269 268 268 268 267 266 266 266 266 267 267 265 266 268 270 273 275 275 276 276 276 277 277 277 276 277 277 277 276 275 276 275 276 275 275 275 275 274 275 275 273 273 273 274 274 274 274 274 275 275 276 278 279 280 280 280 281 281 282 282 282 281 280 280 277 274
271 271 271 271 271 272 271 272 271 271 271 271 270 270 270 270 270 269 269 269 268 268 266 266 266 265 264 264 264 264 264 265 268 272 274 275 275 276 276 275 275 276 275 276 276 275 274 274 272 270 270 270 271 271 272 272 272 271 270 271 272 272 273 274 275 275 275 276 276 278 278 278 278 279 280 280 280 281 282 281 279 278 277 274 273
271 271 271 271 271 272 271 271 271 270 269 269 269 270 269 269 269 269 269 268 268 268 265 265 265 263 261 262 263 264 265 266 269 276 276 277 276 275 275 275 275 275 275 277 274 272 270 269 268 268 269 269 270 270 270 269 268 268 268 269 270 270 271 272 272 272 274 275 275 275 276 277 278 279 279 279 279 280 281 280 278 276 274 272 271
271 271 271 271 271 270 270 270 269 269 268 267 267 268 271 272 271 269 268 272 274 276 274 265 265 263 262 264 265 267 268 270 276 276 276 277 277 277 277 277 277 275 276 275 272 267 267 267 267 267 268 268 268 268 267 266 266 266 267 268 268 268 270 271 271 273 274 273 274 275 276 277 277 277 277 278 279 280 280 279 276 274 272 271 269
270 270 270 269 270 270 269 268 268 267 267 267 267 267 268 271 275 274 274 274 275 276 276 275 275 275 270 265 268 274 274 275 275 276 276 276 276 276 276 275 275 275 275 270 266 266 266 266 266 267 267 267 266 266 266 265 265 265 265 266 267 268 269 269 270 272 272 272 274 276 276 276 276 276 277 278 278 279 279 276 273 272 270 270 268
270 270 270 269 270 269 269 268 267 267 267 267 267 267 268 267 268 272 273 274 275 275 274 274 274 274 274 273 270 268 272 274 275 275 275 275 275 275 274 273 274 274 272 271 265 264 265 265 265 265 265 265 265 265 264 264 264 264 265 265 266 267 268 268 270 271 271 273 274 273 274 274 275 276 277 277 277 277 276 274 272 270 269 268 267
271 270 269 269 269 268 268 267 267 266 265 265 265 266 267 267 266 266 267 272 273 273 272 272 273 273 273 273 274 273 273 274 274 274 274 274 274 273 272 272 272 272 270 264 262 263 264 264 264 264 264 263 263 263 263 263 263 264 265 265 265 266 267 268 270 270 271 272 273 272 273 274 275 275 276 277 276 274 273 271 270 269 268 267 266
271 270 269 269 268 267 267 267 266 266 266 265 265 265 266 267 267 266 263 261 263 267 270 270 271 271 272 272 272 272 273 273 273 273 273 273 273 271 269 267 270 271 268 262 262 261 263 263 263 262 262 262 263 263 263 263 263 264 264 265 265 266 267 268 268 269 270 271 271 272 273 273 274 274 275 275 274 273 271 270 269 268 267 266 265
267 267 267 268 268 267 267 267 266 266 266 265 264 264 264 264 264 264 264 264 262 262 261 260 266 270 267 268 270 271 272 272 272 272 272 272 271 269 267 261 261 261 262 261 261 261 261 261 261 261 261 261 262 262 262 262 263 263 264 264 264 265 266 266 267 267 268 269 271 271 272 272 273 274 274 273 272 271 270 269 268 267 266 266 265
266 266 267 267 267 267 267 266 266 266 265 264 264 264 264 263 263 263 263 262 261 260 260 257 258 265 268 268 269 270 271 271 271 270 270 270 269 267 260 259 259 260 260 260 260 261 261 260 260 260 261 261 261 261 262 262 263 263 263 264 264 264 264 265 266 266 267 268 270 271 271 272 273 273 273 272 271 270 269 268 267 267 266 266 265
265 265 266 266 267 267 266 266 265 265 265 264 264 263 263 263 262 262 261 261 260 259 258 255 255 255 263 262 265 267 270 269 269 269 269 268 268 262 258 258 258 258 259 259 260 260 259 259 259 260 260 260 261 261 262 262 262 263 264 264 264 264 264 265 265 266 266 267 269 270 270 271 272 272 272 270 270 269 268 267 267 267 266 266 266
265 265 266 266 266 266 265 264 264 265 264 263 263 263 263 262 262 262 261 260 261 259 256 255 261 256 255 255 263 261 263 266 265 264 264 264 260 258 258 258 258 257 258 258 259 259 259 259 259 259 260 260 260 260 261 261 262 262 262 263 263 264 265 265 265 265 266 267 268 269 270 271 272 272 271 270 269 268 267 267 266 266 266 266 265
264 266 266 266 266 264 264 264 264 264 263 263 263 262 262 262 261 261 260 260 259 258 256 255 255 256 255 255 255 260 261 256 257 256 257 256 257 256 255 256 256 257 257 257 258 259 258 258 259 260 260 260 260 260 261 261 261 262 263 263 263 263 263 264 264 265 266 267 268 269 270 271 272 271 270 269 268 267 266 266 266 265 264 262 262
264 265 266 266 265 265 264 264 264 263 263 262 262 262 262 262 261 261 260 258 256 256 256 256 256 256 256 256 257 258 258 258 256 255 255 255 255 255 255 255 256 256 257 257 258 258 258 258 259 259 259 260 260 260 261 261 261 262 263 263 263 263 263 264 264 265 265 266 267 268 269 270 271 270 269 268 267 267 266 265 264 263 262 262 261
265 265 265 265 264 264 263 263 263 263 263 263 262 262 261 261 261 260 259 259 257 257 257 256 255 254 256 261 265 265 257 255 255 255 255 255 255 254 254 254 255 255 257 258 258 258 258 258 259 259 260 260 260 261 261 261 262 262 263 263 263 263 263 264 264 265 265 265 266 267 269 270 270 269 268 267 268 267 265 264 263 263 262 262 262
264 264 264 264 264 263 263 263 263 263 263 262 262 261 261 261 261 260 259 258 257 257 256 255 254 254 259 264 265 265 256 253 255 255 254 254 254 254 255 255 254 254 255 256 256 258 259 259 259 259 259 259 260 260 261 261 262 262 263 262 263 263 263 264 264 264 264 264 265 267 268 270 270 269 268 268 266 265 264 263 263 262 262 262 262
264 264 264 264 264 263 263 263 263 262 262 262 261 261 261 261 260 260 260 259 258 257 256 256 255 255 256 263 262 263 254 251 257 255 254 254 253 254 254 254 254 254 255 255 255 256 258 258 258 258 258 258 259 260 260 261 262 262 262 262 263 263 263 263 263 263 263 263 264 266 268 269 269 268 267 266 264 264 263 263 263 262 262 262 261
263 264 264 264 263 263 263 263 262 262 262 262 261 261 261 261 260 260 259 259 258 257 256 255 255 254 254 256 258 256 252 251 250 250 252 254 253 254 253 253 253 253 254 254 254 255 255 257 257 258 258 258 259 259 260 261 262 262 262 262 262 263 263 263 263 263 263 263 264 266 267 268 268 268 267 265 263 263 263 263 262 261 261 261 261
263 263 263 262 263 262 262 263 262 262 262 262 261 261 261 260 260 259 259 258 258 257 256 255 255 254 254 252 251 251 251 250 254 254 253 252 252 253 252 252 253 253 253 254 254 254 253 255 256 257 257 258 258 259 260 261 262 262 263 263 262 262 262 263 263 263 263 264 264 265 266 267 267 267 266 265 263 262 262 261 261 261 261 261 261
263 263 263 263 262 262 262 262 262 262 262 261 261 261 261 260 259 259 258 258 257 257 255 255 254 254 254 252 251 253 252 250 252 252 253 252 252 252 252 252 252 252 252 252 253 253 254 254 254 255 256 257 257 258 259 260 261 262 263 263 263 263 263 264 264 263 263 263 264 264 266 267 266 266 265 264 263 262 261 261 261 261 261 261 261
263 262 263 263 262 262 262 262 261 261 261 261 261 260 260 259 259 258 258 258 258 257 255 254 253 253 253 252 252 251 253 254 254 253 252 252 250 252 251 250 252 251 252 252 251 252 253 253 254 254 255 255 256 257 258 260 261 262 262 262 262 263 264 264 263 263 263 263 264 265 265 266 266 265 265 265 263 263 262 261 261 260 259 260 259
262 262 263 263 263 262 262 261 261 261 261 260 260 260 260 259 258 258 257 258 258 256 255 254 254 253 253 252 252 252 253 252 252 253 252 252 250 251 250 249 251 252 251 252 251 251 252 252 252 253 254 255 255 256 257 259 260 262 262 263 263 263 264 264 263 262 262 262 263 264 265 265 265 265 264 264 263 263 262 261 261 260 260 260 260
261 262 262 262 262 261 261 261 261 261 260 260 260 260 259 259 258 258 258 257 256 256 256 256 255 253 252 253 253 253 253 253 252 251 251 251 250 251 251 249 251 252 251 251 251 251 251 252 253 253 253 253 254 255 256 258 259 260 262 263 264 265 264 264 263 262 262 262 262 263 264 265 264 264 264 263 263 262 262 262 261 260 260 260 259
261 261 261 261 261 261 262 261 261 261 261 260 260 259 259 259 258 258 257 256 256 256 256 255 254 254 253 253 253 253 252 252 252 251 251 250 250 250 250 250 250 249 249 249 251 251 250 249 251 251 252 252 253 254 255 256 258 259 261 263 265 265 264 264 263 262 262 261 260 261 263 263 264 264 263 263 262 261 261 261 261 261 260 259 258
261 261 261 261 261 261 261 261 261 261 260 260 260 259 258 258 258 258 257 257 257 256 255 254 253 253 252 253 253 252 252 252 252 251 251 250 250 249 250 250 251 248 248 249 250 249 249 250 250 251 251 253 253 254 254 255 256 258 261 263 264 264 264 263 262 262 262 261 260 260 261 261 262 262 262 262 262 261 261 261 261 260 260 259 258
Wind_Speed
7 7 7 8 9 9 8 8 8 8 8 8 9 7 6 7 6 6 5 6 5 6 6 5 5 5 5 5 4 4 4 4 3 4 4 4 3 3 4 5 4 4 3 5 3 3 4 5 6 5 4 5 6 5 5 5 4 5 5 6 7 5 6 9 13 17 20 14 9 14 15 12 16 13 10 12 11 10 13 12 10 12 13 12 13
7 8 7 8 9 9 8 7 8 8 9 8 8 7 6 7 6 6 7 5 6 6 6 5 5 5 5 4 4 4 4 4 3 4 5 5 5 3 4 5 4 4 4 4 4 4 4 5 6 6 5 5 6 6 5 5 5 5 5 6 7 6 5 8 11 13 20 21 18 12 13 8 15 16 11 11 14 13 13 12 10 11 13 12 12
7 8 8 9 9 8 8 8 8 9 10 8 8 7 6 6 6 8 7 6 4 5 6 5 5 4 5 4 4 4 4 4 4 4 4 4 4 4 3 3 3 4 5 5 5 5 5 5 6 5 5 5 6 6 5 5 4 5 7 5 7 7 5 7 9 14 17 20 19 18 15 12 12 17 14 11 11 12 16 15 13 11 12 12 12
7 8 8 9 8 9 9 8 9 9 9 7 9 7 7 6 6 8 7 6 7 5 4 4 4 4 5 4 5 4 5 4 4 4 4 3 3 3 3 3 3 4 4 5 6 5 6 7 7 6 6 7 8 8 7 5 6 6 7 7 6 8 7 6 9 11 14 17 21 18 16 15 17 14 13 12 13 13 12 14 13 13 13 12 12
8 8 9 10 8 9 9 8 9 9 9 8 8 8 7 7 6 7 7 7 5 6 4 4 5 5 6 5 4 5 4 4 5 5 4 3 4 4 4 4 4 4 4 4 5 5 5 5 7 6 6 8 8 7 8 8 7 7 8 9 8 8 7 6 8 9 12 17 19 18 17 16 15 16 11 12 15 14 11 12 14 14 15 14 12
7 9 9 10 9 10 8 8 9 9 9 8 9 8 7 7 7 5 6 7 5 4 5 4 4 5 4 4 4 4 4 4 4 4 4 5 5 4 4 4 4 4 4 4 4 4 4 5 6 6 6 7 9 8 8 9 8 8 8 9 9 8 9 9 8 10 12 15 16 20 18 19 19 16 13 8 11 15 15 16 15 13 12 13 11
8 9 8 9 9 9 8 8 9 9 8 8 7 7 7 7 7 6 5 6 6 5 4 5 4 4 4 4 4 4 4 4 4 4 4 4 3 3 3 3 4 4 4 4 4 4 4 5 6 6 6 7 8 9 10 10 8 9 8 10 10 9 9 9 9 10 11 14 15 15 17 17 15 19 16 12 13 12 14 15 17 14 12 11 14
8 9 9 9 8 9 7 7 8 8 7 7 7 7 7 7 6 5 5 7 6 5 5 5 4 4 4 4 4 4 4 4 4 4 4 3 3 3 3 4 4 4 4 4 4 4 4 5 5 6 6 7 7 8 8 10 9 10 7 6 8 10 10 10 9 10 11 12 13 15 14 16 17 14 14 14 14 12 9 11 16 17 17 15 15
9 9 8 9 9 8 7 6 6 7 8 8 8 7 7 6 6 6 6 6 5 4 4 4 4 5 4 4 4 4 4 4 4 4 4 4 2 3 3 4 4 5 5 5 5 4 4 4 5 6 8 11 14 13 12 12 10 11 10 7 8 9 10 10 10 11 11 12 15 12 14 16 15 15 16 15 15 16 16 14 15 15 15 15 16
10 9 9 9 8 7 7 7 7 7 8 8 7 7 7 7 7 7 6 5 5 4 5 4 4 4 4 4 4 4 4 3 6 9 7 4 4 4 4 4 4 4 5 6 6 5 5 5 6 11 13 13 13 13 13 14 14 11 11 11 11 11 11 12 11 10 11 13 14 14 15 16 15 15 16 17 17 16 16 15 16 15 15 14 13
9 9 9 8 8 7 8 8 7 8 7 7 6 7 7 6 7 6 6 5 5 5 5 5 4 3 3 4 4 4 4 5 10 9 10 10 5 4 4 5 4 5 4 5 6 7 5 4 5 7 9 9 8 11 12 15 15 16 17 17 14 12 12 13 13 12 13 12 12 13 14 17 18 16 15 15 14 15 14 15 16 15 14 16 20
10 9 9 8 8 8 8 8 8 8 7 7 7 7 7 7 6 6 6 5 5 5 6 4 3 3 3 3 4 4 4 7 10 11 11 13 10 5 4 4 5 5 5 5 5 5 6 5 4 5 6 7 9 9 10 14 16 16 17 17 17 18 17 14 14 14 13 14 15 13 15 13 16 16 15 14 15 16 17 17 16 15 17 16 14
10 10 9 9 9 8 8 9 9 8 7 7 7 7 7 6 6 5 6 4 5 6 4 4 4 3 4 5 5 5 4 8 12 13 13 12 13 8 5 4 5 5 5 5 6 6 7 7 6 4 5 11 10 9 10 11 14 17 18 19 18 18 18 21 20 15 13 14 15 17 14 15 16 14 13 16 16 20 17 16 15 16 18 18 16
10 10 9 9 9 8 8 9 9 8 7 7 6 6 6 6 5 4 5 5 6 4 4 4 4 4 4 4 4 4 4 8 12 13 12 13 13 10 4 5 4 5 5 6 6 6 7 8 8 7 4 4 7 10 12 13 13 12 11 10 10 12 15 18 20 22 17 14 14 16 16 14 16 17 17 16 18 18 17 16 17 16 18 16 20
10 10 10 9 8 9 9 9 10 8 8 7 6 6 6 5 5 5 6 5 5 5 4 4 3 3 4 3 3 4 4 11 12 13 13 13 14 9 4 4 4 4 4 4 5 6 7 7 7 8 8 7 7 12 13 14 15 15 15 14 11 10 9 9 9 10 11 11 13 14 15 15 15 16 16 15 16 15 14 16 19 17 18 17 18
10 9 10 10 9 9 10 10 9 8 8 7 8 7 5 5 6 4 5 5 4 4 3 3 3 4 3 3 3 4 5 11 12 13 13 13 12 5 4 4 4 5 5 4 5 6 6 7 8 9 10 8 11 20 19 16 15 16 17 16 15 12 11 10 16 17 15 14 13 15 15 18 24 22 22 21 19 18 18 16 14 14 18 16 16
11 10 10 10 9 9 9 10 10 8 7 8 7 7 7 5 4 3 7 6 5 5 3 3 2 3 3 3 4 3 4 8 11 12 12 14 8 4 4 4 4 5 5 4 5 5 5 7 8 10 10 9 14 22 22 22 14 15 15 16 15 15 14 12 15 19 23 26 28 29 30 31 30 31 32 34 26 22 17 15 15 14 15 15 14
11 11 10 9 9 8 8 9 10 9 8 8 8 6 5 4 4 3 6 6 5 4 3 3 3 3 3 4 4 3 4 7 12 12 13 14 10 5 5 5 6 6 5 4 5 5 6 11 11 10 12 13 22 24 24 19 13 14 13 16 16 17 14 12 12 14 21 22 23 25 26 26 27 28 30 30 30 23 15 15 17 15 15 14 15
12 11 10 8 8 8 8 8 9 9 8 7 7 8 6 6 5 5 5 5 5 4 4 4 4 4 3 4 5 4 4 6 11 13 13 13 9 4 6 6 6 6 7 6 4 4 6 8 14 16 15 18 26 25 27 21 14 12 13 13 15 15 14 13 14 15 16 19 18 18 18 19 16 14 14 23 26 23 16 16 15 14 13 14 14
9 8 9 8 8 7 6 8 7 8 9 7 6 6 5 6 6 6 5 5 5 4 4 4 4 3 3 4 4 4 4 5 7 13 12 12 13 7 5 6 7 8 7 9 10 8 5 5 8 17 23 25 26 27 26 26 17 12 11 11 14 15 12 15 16 17 17 16 18 17 17 14 14 11 11 12 14 13 15 13 13 13 14 14 16
9 9 9 9 8 7 6 6 8 6 6 8 7 6 5 6 6 6 6 5 5 5 5 4 4 4 4 4 3 4 3 4 5 11 11 12 14 11 3 5 7 8 8 9 8 10 10 8 6 15 23 25 26 26 26 26 23 14 9 10 11 18 22 15 17 22 17 16 14 15 14 13 13 13 12 11 10 12 12 14 13 13 12 12 14
10 10 10 9 8 7 7 6 5 7 6 7 8 7 5 5 5 5 5 5 6 6 5 4 4 4 3 2 2 2 3 5 4 8 11 13 12 14 7 6 9 9 10 7 8 8 10 9 9 17 27 27 26 26 26 25 27 14 13 22 27 27 20 15 14 12 12 12 13 15 15 13 13 13 12 13 11 11 13 12 13 12 11 11 13
10 10 10 9 8 8 7 7 7 6 7 6 8 9 6 6 5 5 6 6 6 7 6 5 5 3 1 1 1 2 2 3 8 5 9 12 12 12 13 11 16 9 8 9 10 10 9 10 11 22 27 27 26 26 25 27 20 15 26 26 26 29 23 12 11 10 10 13 14 14 13 12 13 13 13 12 13 13 13 12 12 12 12 13 12
10 10 9 9 9 7 7 6 6 6 7 7 7 9 7 6 5 4 4 6 8 8 5 4 3 1 0 0 1 1 2 2 5 7 8 11 11 13 14 15 16 10 9 7 9 11 12 12 16 28 26 26 26 25 24 22 17 24 26 27 27 24 13 11 9 12 13 13 13 13 12 12 12 13 12 13 14 14 14 14 12 12 12 11 11
10 10 10 9 9 8 7 6 6 5 5 7 8 8 7 6 7 3 6 7 8 7 4 3 3 2 2 1 1 1 2 2 3 5 10 11 13 14 15 16 16 16 10 7 8 9 16 24 25 24 24 25 26 24 18 18 23 24 25 25 23 10 10 10 13 11 12 11 12 13 14 13 14 13 15 14 16 13 12 11 11 10 8 7 9
11 11 10 9 9 9 9 7 5 5 5 4 5 5 7 8 8 7 7 6 5 5 5 4 3 3 1 1 1 2 2 2 3 4 5 7 9 13 15 15 15 16 15 12 17 20 20 21 23 23 20 19 15 12 13 14 22 24 23 20 10 11 11 11 10 10 11 12 13 13 12 14 14 15 16 14 12 12 12 13 12 11 10 9 9
11 10 10 9 8 8 9 8 7 6 5 4 3 4 6 7 9 7 6 6 5 5 5 4 4 2 1 0 1 1 2 2 3 3 4 4 5 7 7 7 12 13 9 8 10 10 14 14 14 19 17 23 22 19 17 17 12 10 10 11 10 9 10 11 11 12 12 13 13 13 13 12 14 14 13 13 12 12 12 12 11 10 10 8 7
12 11 11 9 9 8 8 8 8 6 4 4 5 4 4 6 7 7 6 6 6 5 5 4 4 4 2 1 0 1 1 2 4 4 6 6 5 5 6 6 6 7 8 10 10 10 10 12 13 9 9 10 10 9 8 7 10 10 8 8 11 11 15 18 16 10 10 11 13 11 13 14 14 14 13 11 13 12 12 11 9 10 9 6 6
10 11 10 9 8 7 8 9 8 7 7 7 3 2 7 7 7 4 2 4 5 6 5 4 5 4 5 2 1 2 2 4 4 7 7 10 8 7 6 7 7 7 11 17 12 9 7 8 9 10 10 11 11 11 10 11 10 10 9 8 9 11 10 9 11 13 12 11 11 14 13 14 13 12 12 13 11 13 10 9 8 8 7 3 5
11 10 9 9 8 8 8 8 8 7 6 5 8 6 4 5 3 5 4 7 10 8 7 3 5 5 3 0 2 2 1 3 8 10 10 11 12 13 12 14 13 11 14 16 9 7 8 9 9 10 11 11 12 12 12 13 13 14 13 14 12 10 11 11 11 11 13 13 14 14 14 13 12 13 13 13 13 11 11 10 9 5 5 5 5
10 9 9 9 9 10 10 9 6 5 5 6 10 9 7 4 7 7 5 5 7 8 7 7 5 4 4 2 3 5 4 6 7 8 10 10 12 12 12 12 12 13 14 9 4 6 7 8 9 8 8 7 9 9 12 11 12 11 14 13 12 11 13 13 14 14 16 15 14 11 12 12 13 13 14 13 13 13 10 7 4 4 3 3 3
13 11 9 9 9 8 5 6 7 7 5 6 9 8 9 8 4 4 4 4 7 8 6 4 4 5 6 4 3 0 4 5 7 8 9 10 11 12 11 11 11 13 14 13 5 7 7 7 8 9 9 9 10 9 9 10 10 11 12 14 13 13 11 14 16 16 14 12 12 15 12 13 12 13 13 14 12 11 10 8 5 4 3 4 4
11 10 9 10 8 9 7 7 6 7 9 9 8 8 9 9 10 7 2 3 6 5 4 3 4 5 5 4 4 4 4 5 7 8 9 10 11 11 10 9 10 13 12 8 6 6 7 7 7 8 9 10 10 10 9 9 10 10 9 11 14 15 14 16 18 16 13 13 14 14 14 14 14 14 13 12 12 10 9 6 4 3 3 3 4
10 11 12 12 11 8 8 7 8 8 7 7 10 10 8 7 8 9 9 5 2 2 2 3 4 5 5 4 4 5 5 6 6 8 9 9 10 9 8 5 8 12 10 5 6 6 6 6 7 8 8 9 9 9 10 9 10 10 12 10 11 12 14 12 13 14 14 14 13 14 14 14 14 13 12 12 10 9 6 5 4 3 4 3 3
7 7 11 11 11 11 8 7 7 6 6 7 11 10 8 6 7 8 9 10 9 8 4 1 3 3 2 3 4 4 4 5 5 7 8 8 9 9 4 2 5 6 6 4 5 4 5 6 7 8 8 9 9 10 10 11 11 11 12 11 12 12 13 14 14 13 14 14 14 13 13 14 13 12 11 11 10 8 6 4 4 4 3 3 3
8 8 9 10 8 8 9 10 10 10 9 10 10 8 7 7 6 6 5 5 7 7 3 2 1 3 2 3 3 3 4 4 6 7 8 9 11 10 7 7 5 5 5 5 4 5 4 5 5 7 7 8 8 9 9 10 9 11 11 11 13 13 13 13 14 14 15 14 14 14 15 13 13 11 10 9 8 6 5 5 4 4 4 4 3
8 8 8 8 7 9 8 8 9 8 7 7 7 7 6 5 5 5 5 6 6 4 5 1 1 2 1 2 2 4 4 4 6 7 9 10 11 7 4 4 4 4 6 5 5 5 5 5 5 6 7 8 8 8 8 9 10 10 11 11 10 12 11 12 14 15 14 13 13 14 14 14 12 10 9 9 7 5 5 5 4 5 5 5 5
7 8 9 9 8 9 9 9 8 9 7 7 8 6 7 6 6 6 6 6 5 5 3 1 2 2 1 2 3 2 1 4 4 4 5 6 6 4 5 4 4 4 3 4 4 4 5 5 5 6 7 7 8 8 8 8 8 9 10 11 11 10 16 15 16 14 13 12 11 13 13 13 10 9 8 7 6 5 5 5 4 4 4 6 5
6 6 8 10 9 10 9 9 9 9 8 7 8 7 8 7 6 6 5 5 5 4 4 2 2 3 4 3 3 2 3 2 3 3 4 3 3 2 3 2 2 2 3 4 4 4 5 5 6 6 7 7 8 8 8 8 8 9 9 10 11 11 12 11 12 11 11 11 12 11 11 10 9 8 7 6 6 5 4 4 4 4 5 5 6
7 7 9 12 8 9 8 8 8 11 9 9 8 7 7 7 8 8 7 6 5 4 4 4 5 5 5 2 4 2 1 0 0 1 1 2 2 2 1 1 2 2 3 4 4 5 5 5 5 6 7 7 7 8 8 9 9 9 9 10 11 12 12 11 11 10 10 11 11 12 12 11 9 7 6 5 5 5 5 5 5 5 5 5 5
6 7 8 9 8 8 7 7 8 9 8 7 7 7 7 7 6 6 6 6 5 4 4 5 6 5 4 6 6 3 4 1 0 1 2 1 1 2 3 2 2 3 3 3 4 5 5 6 6 6 6 6 7 7 8 8 9 9 9 10 10 11 12 11 10 11 10 12 12 12 12 10 8 7 6 5 6 5 5 5 4 5 5 4 4
9 9 8 8 10 9 9 9 8 8 7 8 8 8 8 7 7 7 7 6 7 6 5 5 4 4 6 8 5 3 4 1 1 2 1 1 2 2 3 3 3 3 4 5 5 5 5 6 6 6 6 7 7 7 8 8 9 9 9 10 10 11 11 11 11 11 11 11 12 11 11 10 9 7 6 5 5 4 4 4 4 4 4 4 4
9 8 9 8 9 9 8 8 8 9 8 8 7 6 7 8 8 8 7 7 6 6 6 6 5 4 5 7 4 3 2 2 3 2 1 2 2 3 4 4 4 5 5 5 6 4 5 5 6 6 6 6 7 7 8 8 9 9 9 10 10 11 11 11 12 12 12 11 12 13 13 11 8 6 5 4 4 4 4 4 4 4 4 4 5
9 8 8 9 8 7 7 8 9 8 8 7 7 7 7 7 7 7 7 6 7 6 7 6 6 6 6 6 2 2 2 2 3 3 3 3 3 4 5 5 6 5 6 6 5 4 5 5 6 6 6 6 6 6 7 7 8 8 9 10 10 11 11 11 12 11 11 11 12 12 11 10 8 6 5 4 3 3 3 3 3 4 4 4 4
9 9 11 11 9 9 10 7 10 8 8 7 7 7 7 8 7 7 7 6 7 6 6 5 5 5 6 4 4 4 4 3 4 4 3 4 3 5 5 6 6 6 7 6 6 4 4 5 5 6 6 6 6 6 7 7 7 7 8 9 10 10 11 12 12 12 11 11 11 11 11 9 8 6 4 3 3 2 2 2 2 3 4 3 4
10 10 10 10 8 8 9 7 10 9 9 9 9 9 8 8 7 7 7 7 7 6 6 5 5 5 6 6 4 5 3 3 3 3 5 3 3 5 5 6 7 6 6 6 6 5 6 5 5 5 6 6 7 7 7 7 7 7 7 7 8 9 9 10 11 11 11 10 10 9 9 8 7 5 5 3 3 2 2 2 2 2 2 3 4
9 11 11 9 11 10 10 10 11 10 8 8 8 9 10 8 7 6 7 7 6 6 6 6 6 7 6 5 5 4 4 3 5 3 3 4 3 5 6 6 7 7 6 6 5 6 6 6 5 5 5 6 6 7 7 7 7 7 6 6 7 8 8 9 10 10 10 11 10 9 8 7 6 5 5 3 2 2 2 2 2 2 3 3 3
10 10 10 10 9 10 11 9 13 9 9 7 10 9 8 7 6 6 6 6 6 6 6 5 6 6 6 6 5 4 3 4 4 5 3 4 5 5 6 5 6 7 6 6 5 5 5 5 5 5 6 6 5 6 6 7 7 8 7 6 6 8 12 14 10 9 9 10 9 9 8 7 5 4 4 3 1 1 2 2 3 2 3 3 4
10 10 11 10 10 12 12 13 9 9 12 13 8 7 7 6 7 6 6 6 6 6 6 6 5 5 5 6 4 5 4 5 4 4 4 5 5 6 7 6 6 6 6 7 7 6 6 6 6 6 6 6 5 6 6 6 7 8 9 7 9 17 17 17 12 10 13 9 8 9 8 6 5 4 4 3 2 1 2 3 3 3 3 3 3
10 10 11 11 10 12 10 9 10 10 7 9 7 9 7 6 6 6 6 5 5 5 5 5 5 6 6 5 6 5 4 5 6 6 5 5 6 6 7 6 6 6 7 6 7 6 6 5 6 6 6 5 5 5 5 5 6 8 8 9 17 19 15 16 15 16 13 8 8 7 8 6 5 4 3 2 2 1 1 2 2 3 3 3 3
11 10 10 12 10 10 10 10 10 10 8 8 7 9 9 9 8 6 6 6 6 6 5 5 5 6 5 6 6 5 5 4 5 5 6 6 6 6 6 6 6 5 5 7 7 7 6 7 7 7 6 5 5 5 5 5 6 7 12 18 18 17 16 13 11 14 17 12 7 7 6 6 5 4 3 3 2 1 1 1 2 2 2 3 3
Wind_Direction
119 119 116 113 113 111 112 109 107 109 106 107 108 110 110 110 111 125 111 96 106 97 97 98 98 99 94 83 89 87 82 66 56 78 69 60 42 51 28 36 20 341 345 321 311 302 294 293 296 295 290 289 286 294 291 281 279 266 264 268 268 260 264 274 279 284 292 286 278 290 303 307 296 294 294 293 293 286 284 282 281 278 279 277 278
127 126 119 119 116 116 113 110 113 110 108 107 109 114 118 119 129 111 100 104 101 105 103 105 101 101 101 102 94 85 77 75 55 67 57 37 19 27 29 25 4 323 333 317 318 321 308 303 300 298 296 283 289 289 283 289 279 279 265 258 269 266 244 261 273 281 287 300 299 293 289 288 287 294 298 299 301 302 290 287 285 281 279 280 280
127 123 120 119 117 116 116 116 116 114 113 115 117 122 122 118 116 111 109 106 93 105 114 110 114 113 101 94 85 69 58 54 43 57 58 58 28 0 14 19 335 327 332 325 326 328 325 312 302 305 307 307 295 287 286 284 279 273 276 263 265 266 248 238 266 280 286 290 294 299 298 300 284 294 300 300 294 293 295 294 290 285 279 277 278
127 119 116 114 118 118 117 121 117 121 120 127 124 124 120 115 116 109 114 111 105 98 105 118 112 102 92 74 66 60 46 35 36 44 46 41 22 356 348 354 339 326 321 320 323 329 320 321 314 319 320 316 310 310 306 293 292 288 282 276 264 272 262 246 245 261 279 287 292 295 296 301 296 292 297 297 291 290 286 291 288 283 284 282 276
123 120 123 123 124 122 124 126 126 127 128 130 127 125 120 119 114 116 113 103 109 110 92 92 89 78 75 70 56 49 43 39 34 20 18 25 24 6 353 346 334 322 310 302 302 306 309 305 303 312 316 311 307 309 308 308 300 295 291 290 284 276 274 258 254 255 269 276 285 289 294 291 287 292 299 304 302 294 289 284 288 290 290 286 281
124 125 129 128 130 128 131 132 134 136 134 131 128 126 123 117 113 102 112 113 105 93 98 71 81 79 69 62 60 47 44 44 43 35 19 14 11 1 344 327 317 315 310 303 301 301 299 300 300 302 305 303 301 303 303 301 303 298 291 289 285 280 278 272 259 260 262 269 278 289 293 295 299 294 302 293 289 300 304 298 292 284 284 289 284
130 129 132 131 133 137 141 142 140 138 133 130 126 120 114 113 108 110 107 106 100 91 73 75 45 70 55 55 50 43 41 40 38 29 19 10 358 339 323 315 306 307 296 296 298 297 293 294 298 299 299 297 298 300 303 300 295 289 285 287 287 285 282 279 275 271 269 275 278 276 286 288 290 298 306 304 293 289 294 299 297 299 294 289 292
134 134 136 136 140 142 143 142 137 132 127 123 118 114 112 108 107 106 100 87 82 75 70 69 51 61 48 56 45 51 49 45 38 25 13 354 344 330 324 323 321 315 308 303 299 296 297 298 296 296 293 293 291 293 294 296 297 295 290 279 288 295 294 292 287 282 281 280 278 288 288 292 297 292 298 302 301 293 282 292 296 301 302 299 293
139 140 142 143 147 144 138 133 128 125 123 118 116 116 114 113 105 97 90 87 80 79 72 62 56 43 36 43 43 45 61 49 38 18 12 357 352 335 328 326 322 319 316 315 315 317 316 307 303 298 292 289 289 290 291 294 302 306 307 307 302 298 298 298 297 296 291 287 289 287 290 292 293 300 304 304 304 302 304 298 289 290 293 293 293
145 147 147 146 143 140 134 130 128 123 118 118 119 118 112 104 98 91 86 85 80 76 72 66 66 58 49 39 49 59 50 47 12 15 12 6 352 346 343 336 330 326 327 325 324 324 319 312 300 295 296 296 296 297 301 305 304 301 305 315 313 308 303 301 298 295 293 294 293 298 297 294 297 299 298 297 298 299 297 298 296 299 298 291 283
149 147 144 143 140 136 132 130 127 121 122 118 117 110 104 101 95 90 83 76 75 66 67 58 50 43 55 48 44 41 32 18 7 7 6 3 4 354 346 333 327 327 324 321 319 318 311 302 298 297 297 299 301 304 305 307 305 302 302 299 298 299 304 305 305 307 305 298 299 298 296 296 298 301 300 304 304 306 309 309 305 306 304 304 300
146 145 142 142 142 139 135 130 124 125 123 119 113 108 105 101 98 97 92 83 74 71 63 65 58 47 44 44 46 34 24 0 5 5 2 1 359 2 359 339 330 327 322 318 311 310 312 313 306 304 303 307 314 310 304 307 307 304 303 306 311 313 311 311 312 311 311 309 303 296 296 294 298 301 302 303 305 304 300 295 292 287 287 285 282
145 143 147 144 143 138 137 131 127 124 120 117 114 109 109 105 105 102 97 100 88 75 67 60 45 38 46 38 30 18 15 353 4 2 1 1 1 14 0 341 334 325 322 318 316 319 320 318 320 313 308 315 315 313 312 310 314 315 313 312 307 301 303 303 298 293 295 289 289 292 292 297 295 294 299 302 302 297 298 293 291 291 290 285 285
150 148 147 147 144 141 137 132 126 124 121 116 116 115 112 112 110 107 104 90 89 89 73 64 48 38 33 33 22 15 9 355 3 0 1 1 2 12 351 340 331 322 322 320 320 321 319 320 318 318 317 318 318 319 320 318 316 313 308 300 294 287 289 288 292 289 279 277 279 282 287 290 292 295 295 295 297 298 300 297 298 294 298 297 297
154 152 147 146 144 143 139 134 129 127 124 122 118 115 116 117 106 102 100 99 98 93 83 70 46 42 28 26 29 19 5 2 2 1 2 360 1 10 341 332 323 319 318 317 316 313 312 311 312 314 323 332 327 327 323 319 318 317 313 308 298 290 278 274 277 285 284 276 273 275 284 288 285 287 289 291 287 288 289 289 291 290 290 289 287
152 149 148 152 151 150 142 136 132 132 133 131 127 124 119 120 117 117 103 94 87 91 71 71 54 31 23 26 28 18 3 1 2 2 0 357 0 357 341 332 328 326 326 322 315 310 309 316 321 319 320 323 324 329 328 325 319 315 312 308 307 301 292 284 287 293 292 291 286 287 288 289 294 296 297 297 296 294 291 287 284 284 289 288 287
160 159 155 154 152 151 146 139 137 137 138 132 129 130 128 122 111 114 99 94 88 77 78 64 60 51 30 29 26 14 7 354 -0 1 -0 356 357 346 334 332 333 334 326 318 311 312 317 322 319 317 318 319 325 330 330 328 317 311 308 306 305 306 301 304 302 300 301 300 298 298 298 299 299 299 298 297 296 295 293 290 288 289 291 288 284
163 159 157 155 151 149 147 143 140 142 143 140 136 131 123 111 109 104 108 112 97 94 84 62 43 41 35 22 23 15 358 350 360 0 360 356 356 345 338 345 340 328 320 307 302 309 311 317 319 321 323 321 326 329 330 328 316 311 308 308 306 309 309 312 311 308 303 300 301 298 296 293 291 291 293 293 292 290 287 287 288 288 285 283 287
164 161 154 148 144 141 142 141 141 143 141 139 138 132 131 125 116 101 101 99 95 90 72 71 49 32 28 19 13 22 9 356 351 359 356 355 353 355 356 349 331 320 315 318 316 311 317 322 330 330 325 324 326 328 328 329 319 313 313 310 311 309 309 313 312 315 318 316 313 312 306 302 296 292 286 287 292 291 285 281 285 283 281 284 285
151 138 137 138 137 135 140 141 141 141 138 131 127 123 123 110 104 105 94 91 90 76 70 72 72 39 24 24 24 19 16 353 344 355 354 355 358 4 1 336 324 321 328 332 327 327 326 319 324 327 326 327 327 326 327 327 324 317 316 315 308 304 312 313 313 312 309 307 305 305 301 301 300 292 287 287 288 283 285 283 281 280 282 281 287
140 141 136 134 133 132 131 139 137 132 132 131 123 112 106 111 108 99 101 92 90 83 75 77 71 54 28 19 35 11 17 355 331 349 352 359 358 359 336 321 320 330 330 329 330 328 327 325 316 325 328 327 327 327 327 327 325 322 316 303 302 309 314 310 310 310 303 300 300 302 306 307 303 301 299 294 290 294 292 289 282 279 281 283 292
141 138 138 133 131 130 131 127 126 131 132 127 120 108 98 98 100 105 104 102 99 94 84 72 68 52 26 9 22 359 358 345 329 344 354 358 355 352 348 336 341 334 328 327 325 323 321 317 317 325 328 329 328 327 327 327 326 324 310 313 314 315 316 311 303 298 297 306 309 308 305 304 305 305 302 302 302 296 295 291 287 283 281 283 287
141 138 134 134 135 135 133 134 134 134 128 126 122 116 114 106 102 102 111 112 106 96 78 66 63 49 8 346 5 343 335 317 347 349 354 355 350 349 348 344 343 341 331 328 329 323 315 314 309 323 328 328 328 327 327 327 325 317 319 320 320 320 319 303 298 303 308 308 302 297 299 302 303 303 305 305 304 301 297 293 289 288 284 283 279
140 136 136 134 133 131 133 129 127 127 130 128 119 121 121 119 112 109 135 126 108 85 67 80 75 131 194 284 249 274 309 313 328 346 356 350 351 349 347 345 343 338 333 320 322 320 319 318 322 326 327 327 327 326 326 325 322 323 324 323 323 320 307 309 319 314 305 298 299 299 299 299 299 300 302 301 303 301 298 294 290 287 283 282 287
141 140 139 140 137 136 129 131 132 130 133 133 130 131 135 146 128 132 138 89 81 86 95 118 146 163 192 209 263 305 315 313 307 323 347 350 351 348 347 343 340 338 331 314 309 311 319 321 322 324 326 327 327 326 323 323 326 326 324 322 320 310 321 320 310 301 299 300 302 302 301 301 298 294 295 296 296 294 291 290 287 283 275 268 274
144 143 142 141 143 140 132 127 122 124 124 117 124 137 145 148 134 118 86 93 101 118 133 149 168 181 149 44 341 320 307 308 306 305 293 338 346 348 344 340 336 335 330 322 323 323 322 324 325 326 327 327 326 325 325 319 319 319 319 324 329 329 317 311 304 308 309 307 305 303 301 301 300 303 299 297 296 299 297 296 299 301 304 305 310
138 139 142 142 142 145 142 143 139 132 123 114 121 140 176 124 108 108 111 120 133 141 148 165 166 150 143 253 285 287 301 295 306 293 308 334 337 335 332 327 329 329 326 315 322 325 327 330 331 329 325 323 322 318 314 311 312 320 339 336 323 319 324 321 318 313 309 305 304 301 303 302 301 298 303 309 306 303 301 298 299 301 308 312 307
147 150 152 152 154 157 152 148 146 136 143 151 146 140 105 102 118 134 149 153 145 158 160 169 159 160 172 205 232 305 328 335 317 332 344 344 336 334 326 321 329 332 334 332 333 333 333 332 330 325 318 318 320 317 315 327 330 329 319 321 326 325 321 314 306 295 294 295 294 297 303 304 303 307 305 306 306 304 307 306 308 307 313 319 306
150 151 154 151 154 156 155 158 142 139 136 122 90 83 115 109 123 126 174 146 147 151 168 170 170 172 159 164 107 12 15 342 313 344 344 347 345 343 338 341 341 348 342 339 336 338 333 331 332 334 336 334 335 337 339 333 326 326 326 328 327 323 318 321 321 316 311 311 315 311 306 308 309 309 306 303 304 308 312 313 313 310 309 319 289
154 158 158 157 155 156 158 152 147 135 140 148 143 103 103 126 134 129 173 204 203 190 158 165 169 163 137 62 143 87 271 285 336 347 348 353 355 355 351 347 350 348 348 353 353 341 339 340 338 338 339 343 340 341 336 337 333 331 331 332 333 326 325 326 319 313 321 321 313 311 311 312 310 311 309 308 306 310 316 325 317 324 308 316 327
157 156 162 168 167 163 152 136 150 139 155 147 122 122 118 113 128 131 129 133 147 145 127 103 102 97 106 79 358 21 348 343 349 354 -0 5 4 359 358 357 356 357 2 9 3 356 352 345 340 338 340 335 336 336 332 329 329 328 327 325 326 328 328 325 324 324 321 315 313 310 316 314 311 312 310 310 311 313 318 326 326 338 344 348 7
162 169 167 163 158 160 138 146 143 157 153 145 139 137 139 137 123 117 114 136 146 135 107 98 97 79 67 79 112 273 344 354 0 10 15 12 10 8 10 6 3 7 13 11 15 4 359 348 343 341 339 337 331 326 324 323 325 328 326 324 325 330 328 324 322 321 313 311 320 324 320 317 314 312 312 312 312 316 322 321 337 353 18 27 34
157 157 159 159 157 158 158 155 164 166 155 151 154 154 153 157 151 147 110 115 135 118 95 94 88 80 73 72 45 26 4 2 11 21 22 20 17 18 19 15 20 19 23 15 26 358 357 353 344 338 336 330 326 327 325 325 325 323 324 325 323 323 320 316 318 316 317 319 322 319 320 318 318 316 313 315 320 321 322 328 351 22 24 41 33
166 163 165 166 162 160 165 167 166 170 160 150 152 161 169 168 159 151 147 131 86 31 42 63 71 80 83 69 28 15 10 13 22 28 28 24 27 27 29 29 34 29 35 29 17 4 355 349 340 334 327 323 320 323 322 324 328 326 326 320 313 313 314 314 319 321 320 320 319 319 318 316 315 315 317 319 320 321 326 343 359 9 28 35 46
155 162 164 163 169 170 169 164 173 156 151 144 146 151 158 163 153 156 158 161 165 171 204 279 351 96 102 28 12 9 8 17 33 34 31 32 31 32 54 72 31 16 25 27 24 358 356 343 336 329 327 325 325 328 327 326 327 328 325 322 320 320 321 323 322 322 320 317 316 318 320 318 315 319 321 321 324 331 341 351 4 23 31 40 40
166 167 168 171 169 171 168 173 166 153 136 135 140 145 151 152 157 154 140 144 155 158 181 221 231 322 359 17 4 357 9 28 41 33 34 34 33 31 43 28 28 17 12 2 5 348 338 329 326 320 320 317 319 322 323 321 321 322 321 320 320 322 320 318 321 320 320 315 317 320 320 318 319 319 321 321 332 340 354 4 17 26 38 40 36
169 169 171 174 169 151 155 160 158 140 137 145 144 149 150 153 145 138 146 170 175 177 160 186 15 351 0 278 287 329 12 45 37 34 36 34 36 43 62 45 32 8 3 351 344 334 331 319 314 308 312 316 316 317 317 318 319 316 315 314 312 314 312 315 317 319 317 318 318 320 320 318 319 323 325 327 338 352 3 14 21 43 44 58 55
180 177 175 169 160 157 156 159 157 146 141 143 147 154 157 157 151 151 168 182 179 162 163 215 190 181 228 271 299 258 334 9 25 25 27 25 26 30 30 22 14 4 335 323 321 317 310 307 305 311 312 314 314 314 316 314 315 313 313 315 315 311 312 314 316 315 315 314 316 319 319 318 320 326 334 336 347 354 7 17 20 41 41 45 44
189 175 162 157 160 158 157 156 158 155 154 150 157 162 163 153 149 162 182 188 167 153 161 167 191 222 237 244 284 290 59 6 17 0 355 353 15 32 35 4 346 328 314 309 305 310 304 307 310 312 313 315 314 314 315 313 311 312 313 315 315 315 318 322 318 317 318 318 317 315 315 316 323 331 341 345 351 359 9 18 24 30 47 45 60
174 172 165 164 160 168 166 162 155 142 159 163 170 167 155 158 166 175 179 171 167 169 170 180 211 222 231 219 248 221 116 222 142 269 315 328 345 346 0 320 307 296 298 305 302 302 304 304 310 312 314 312 313 314 314 315 315 315 316 318 319 319 320 319 319 317 321 320 317 319 321 323 327 334 340 352 352 0 12 24 34 48 67 78 86
176 165 168 172 164 159 162 163 168 170 170 171 167 163 166 162 167 174 173 167 161 164 178 198 215 237 231 229 240 178 154 184 211 234 259 263 289 305 296 280 274 287 290 290 291 297 299 305 308 311 311 309 311 311 314 315 315 318 320 320 318 319 320 319 319 321 320 322 319 317 321 323 329 340 346 351 9 19 25 37 47 54 58 67 70
177 175 171 171 169 171 171 177 173 167 167 165 168 167 165 168 172 178 174 168 166 169 187 209 220 229 244 233 229 189 134 173 170 219 253 259 262 265 264 263 261 256 263 267 276 291 302 303 307 309 309 312 312 316 316 316 316 319 322 321 322 322 323 324 324 324 323 321 316 316 320 325 332 341 351 2 8 21 36 38 48 53 61 60 59
184 178 177 170 178 182 178 165 164 167 170 171 175 170 168 168 176 175 172 168 171 175 184 201 222 218 229 236 219 217 135 170 186 215 225 249 255 260 262 262 261 262 260 263 265 269 281 292 297 299 300 303 308 314 315 313 315 317 321 322 323 321 323 323 325 325 327 321 317 318 322 324 328 335 349 7 13 34 38 48 51 58 60 61 60
187 182 179 180 178 171 172 170 174 177 174 169 158 169 173 176 176 172 171 172 177 185 187 195 202 210 224 236 219 185 179 196 200 214 225 236 244 256 260 266 268 271 270 269 271 268 275 282 287 291 292 295 299 302 303 306 311 315 321 323 323 324 323 323 325 325 322 315 315 319 322 322 326 332 348 7 14 41 48 57 67 74 76 80 83
190 188 176 134 172 170 169 180 174 164 163 163 175 179 180 181 178 174 171 175 185 187 191 196 205 216 221 220 208 201 212 201 212 208 227 232 247 254 261 267 264 264 265 271 270 272 271 271 278 287 300 301 303 302 303 304 307 310 316 321 321 323 323 324 323 320 312 310 315 316 317 320 325 328 341 0 21 39 50 69 82 96 92 82 82
193 176 176 181 178 178 182 168 176 174 176 179 178 183 182 180 181 173 174 179 184 186 188 196 208 217 222 226 227 217 216 206 220 224 231 236 239 254 254 258 260 260 258 260 267 269 268 265 272 281 288 295 301 302 302 301 302 305 308 311 314 312 312 315 319 317 314 312 310 308 311 315 321 327 343 3 24 44 50 51 60 56 71 87 83
192 184 186 185 185 186 182 175 164 174 178 181 185 185 187 185 176 174 176 182 185 185 183 197 201 215 221 226 224 227 222 224 230 232 234 239 244 249 253 257 260 264 265 263 259 260 266 271 272 272 277 281 289 296 300 303 305 302 300 301 306 314 317 322 321 319 317 314 308 306 311 313 320 322 339 354 17 42 52 45 45 78 80 87 91
194 191 193 189 186 184 177 170 165 178 179 183 182 186 183 174 172 176 181 188 189 190 192 198 204 213 218 230 228 222 225 228 236 239 243 245 249 248 251 253 258 258 265 269 270 264 266 268 271 274 276 282 286 294 297 304 303 304 299 298 301 317 326 327 323 323 321 318 310 310 313 318 317 329 336 347 0 31 77 83 73 67 81 85 92
196 194 193 191 192 185 161 171 180 179 174 162 173 179 175 175 177 182 185 187 188 197 195 200 209 213 220 226 221 224 230 236 242 248 250 254 254 257 251 252 254 260 262 266 267 271 272 272 270 269 270 275 278 285 294 301 304 304 303 293 308 329 332 334 333 326 326 323 317 318 317 316 324 330 348 352 357 18 82 100 111 112 102 96 103
196 194 197 195 184 178 188 186 187 160 157 169 182 167 172 164 178 187 186 184 194 203 203 198 204 215 217 228 227 229 226 236 243 249 250 254 252 254 255 256 257 259 259 260 266 269 272 270 272 270 273 272 278 279 286 290 297 299 301 303 321 326 330 336 334 333 336 332 327 320 321 320 322 330 344 357 0 24 83 113 118 125 123 125 123
197 195 191 180 178 181 175 168 172 163 172 176 179 172 167 163 175 185 182 191 204 204 195 198 210 214 223 223 225 229 235 240 242 246 248 251 251 251 251 255 260 264 265 265 267 267 269 270 271 272 275 279 285 284 286 284 290 292 298 307 318 323 328 339 337 335 336 339 328 326 329 333 333 336 339 349 11 27 72 102 120 121 129 128 135